Flag for U.S.A. Weather past 2 weeks in Green Bay, Wisconsin, U.S.A.

Now
14 °F

Overcast.


Feels Like: 14 °F
Forecast: 13 / 26 °F
Wind: No wind

Location: Austin Straubel International Airport

Current Time: Jan 26, 2015 at 8:51:30 AM

Latest Report: Jan 26, 2015 at 7:53 AM


Visibility: 9 mi

Pressure: 29.97 "Hg

Humidity: 84%

Dew point: 10 °F

Location of Green BayLocation

Historic Weather in Green Bay — Graph

°F

Green Bay temperature yesterday

Maximum temperature yesterday: 22 °F (at 12:53 AM)
Minimum temperature yesterday: 13 °F (at 11:53 PM)
Average temperature yesterday: 18 °F

Past Weeks' High & Low Weather Summary

 TemperatureHumidityPressure
High39 °F (Jan 17, 12:53 PM)92% (Jan 20, 1:53 AM)30.84 "Hg (Jan 20, 1:53 AM)
Low-2 °F (Jan 13, 9:53 PM)49% (Jan 12, 2:53 PM)29.44 "Hg (Jan 17, 2:53 PM)
Average23 °F76%30.09 "Hg
* Reported Jan 11 7:53 AM — Jan 26 7:53 AM, Green Bay, Weather by CustomWeather, © 2014

Note: Actual official high and low records may vary slightly from our data, if they occured in-between our weather recording intervals... More about our weather records

Advertising

Green Bay weather history for previous 24 hours

 ConditionsComfort  
Time TempWeatherWind HumidityBarometerVisibility
7:53 AM
Jan 26
14 °FOvercast.No wind84%29.97 "Hg9 mi
6:53 AM13 °FPassing clouds.No wind84%29.98 "Hg10 mi
5:53 AM14 °FOvercast.No wind84%30.00 "Hg10 mi
4:53 AM13 °FPartly cloudy.No wind84%30.01 "Hg10 mi
3:53 AM13 °FOvercast.No wind84%30.01 "Hg10 mi
2:53 AM11 °FPassing clouds.No wind88%30.03 "Hg10 mi
1:53 AM12 °FClear.No wind84%30.05 "Hg10 mi
12:53 AM12 °FClear.No wind84%30.06 "Hg10 mi
11:53 PM
Jan 25
13 °FClear.No wind77%30.08 "Hg10 mi
10:53 PM14 °FClear.5 mph77%30.09 "Hg10 mi
9:53 PM16 °FOvercast.5 mph74%30.10 "Hg10 mi
8:53 PM16 °FOvercast.5 mph74%30.14 "Hg10 mi
7:53 PM16 °FOvercast.No wind74%30.12 "Hg10 mi
6:53 PM15 °FPassing clouds.No wind74%30.12 "Hg10 mi
5:53 PM16 °FClear.7 mph74%30.11 "Hg10 mi
4:53 PM17 °FClear.13 mph70%30.10 "Hg10 mi
3:53 PM20 °FSunny.16 mph65%30.09 "Hg10 mi
2:53 PM21 °FSunny.18 mph65%30.07 "Hg10 mi
1:53 PM21 °FSunny.20 mph65%30.06 "Hg10 mi
12:53 PM21 °FSunny.21 mph68%30.07 "Hg10 mi
11:53 AM19 °FPassing clouds.23 mph71%30.07 "Hg10 mi
10:53 AM19 °FLight snow. Overcast.23 mph71%30.06 "Hg5 mi
9:53 AM18 °FLight snow. Overcast.18 mph74%30.05 "Hg5 mi
8:53 AM17 °FOvercast.24 mph70%30.01 "Hg10 mi
Weather by CustomWeather, © 2014

See weather overviewHow to use our weather pages